User: anonymous   Login
Location: Newark
(3.0500°N, 36.0167°E)
Time: 21:51:22
(UTC+00:00)
Language:

Vanguard 2 - Orbit

View from above orbital plane
View from above orbital plane
View from above satellite
View from above satellite

Ground track
Ground track

The orbit data is extracted from the following two-line orbital elements,

1    11U 59001A   19236.07352650 -.00000080  00000-0 -43948-4 0  9998
2    11  32.8684  95.5931 1467378   7.0636 354.8420 11.85609385581292
Epoch (UTC): 24 August 2019 01:45:52
Eccentricity: 0.1467378
inclination: 32.8684°
perigee height: 554 km
apogee height: 2938 km
right ascension of ascending node: 95.5931°
argument of perigee: 7.0636°
revolutions per day: 11.85609385
mean anomaly at epoch: 354.8420°
orbit number at epoch: 58129

The dashed part of the orbit path shows where the satellite is in the earth's shadow,  

DLR